Date,TemperatureHighF,TemperatureAvgF,TemperatureLowF,DewpointHighF,DewpointAvgF,DewpointLowF,HumidityHigh,HumidityAvg,HumidityLow,PressureMaxIn,PressureMinIn,WindSpeedMaxMPH,WindSpeedAvgMPH,GustSpeedMaxMPH,PrecipitationSumIn
2013-1-1,54,34,28,50,31,26,96,87,62,30.53,30.38,4,1,5,0.00
2013-1-2,62,35,28,48,29,24,93,79,37,30.38,30.22,5,1,6,0.01
2013-1-3,59,36,26,45,28,23,90,75,31,30.23,30.12,11,1,16,0.24
2013-1-4,59,44,37,49,41,34,94,90,64,30.33,30.20,4,1,7,0.05
2013-1-5,47,42,40,42,39,37,93,87,74,30.24,30.14,10,1,10,0.12
2013-1-6,48,43,40,42,40,38,93,90,80,30.21,30.01,7,2,8,0.11
2013-1-7,51,47,41,47,44,39,94,89,83,30.18,29.83,17,4,19,0.13
2013-1-8,53,47,42,49,44,39,95,90,84,30.18,29.76,20,4,23,0.59
2013-1-9,50,40,34,48,38,33,95,93,90,29.98,29.70,18,3,21,1.63
2013-1-10,39,35,29,37,33,27,95,93,89,30.14,29.96,8,1,8,0.06
2013-1-11,50,31,26,42,28,24,95,89,62,30.36,30.14,4,1,6,0.00
2013-1-12,49,30,24,44,26,22,94,85,56,30.48,30.35,11,1,11,0.01
2013-1-13,45,30,23,37,26,21,92,84,63,30.53,30.46,6,1,6,0.00
2013-1-14,39,35,32,32,30,28,88,83,71,30.60,30.50,6,0,8,0.00
2013-1-15,56,36,30,47,31,27,92,83,49,30.73,30.60,6,1,6,0.00
2013-1-16,57,34,28,43,30,26,94,85,51,30.71,30.55,6,1,7,0.00
2013-1-17,42,34,29,38,32,27,94,91,85,30.56,30.33,4,1,5,0.00
2013-1-18,39,34,32,37,33,30,95,93,90,30.38,30.30,8,1,8,0.00
2013-1-19,38,35,32,35,32,30,94,92,87,30.42,30.37,5,1,7,0.00
2013-1-20,59,38,32,49,34,30,94,88,58,30.43,30.30,5,1,8,0.00
2013-1-21,38,34,31,36,32,29,94,92,88,30.31,30.17,6,1,8,0.00
2013-1-22,46,35,31,40,33,29,95,90,77,30.17,29.94,5,1,5,0.00
2013-1-23,43,40,37,41,38,34,94,91,84,30.16,29.87,7,1,10,0.35
2013-1-24,49,43,40,45,40,38,94,88,71,30.23,30.08,7,1,9,0.17
2013-1-25,62,46,40,52,43,38,95,89,61,30.09,29.95,5,1,8,0.13
2013-1-26,45,42,39,42,39,36,94,90,85,30.07,29.91,15,4,16,0.38
2013-1-27,44,42,40,40,38,38,94,89,83,30.09,30.02,9,3,13,0.13
2013-1-28,42,41,39,41,39,37,95,94,92,30.12,30.04,6,1,9,0.47
2013-1-29,48,45,42,47,43,40,96,95,95,30.36,30.11,6,1,7,0.63
2013-1-30,48,47,44,47,45,43,96,95,95,30.41,30.35,4,1,5,0.20
2013-1-31,52,47,46,49,45,45,96,93,84,30.42,30.33,7,2,9,0.12
2013-2-1,65,47,40,54,44,38,95,89,63,30.44,30.36,6,1,6,0.05
2013-2-2,47,42,39,43,39,37,95,92,83,30.42,30.29,7,2,8,0.00
2013-2-3,51,44,39,45,42,38,94,90,79,30.33,30.24,5,1,5,0.09
2013-2-4,56,47,44,45,42,41,93,85,63,30.24,29.92,6,1,6,0.00
2013-2-5,54,46,44,45,42,41,93,86,69,29.96,29.87,20,4,21,0.15
2013-2-6,53,46,43,43,41,40,92,84,67,30.07,29.81,12,2,14,0.12
2013-2-7,59,45,36,42,38,32,90,76,44,30.22,29.82,18,3,21,0.07
2013-2-8,53,40,34,44,36,32,93,85,66,30.34,30.22,5,1,7,0.00
2013-2-9,48,42,40,42,39,36,92,87,78,30.37,30.29,3,0,3,0.00
2013-2-10,58,41,34,46,37,32,94,85,53,30.41,30.35,5,1,7,0.00
2013-2-11,50,44,40,43,40,37,92,86,71,30.39,30.35,3,0,5,0.05
2013-2-12,50,47,43,46,44,39,94,89,83,30.43,30.31,16,3,16,0.02
2013-2-13,49,45,43,46,43,41,94,91,85,30.53,30.34,13,1,13,0.19
2013-2-14,44,44,44,42,42,42,93,92,91,30.53,30.52,2,1,4,0.00
2013-4-28,51,50,49,46,45,44,86,81,77,30.07,29.98,19,6,19,0.00
2013-4-29,69,51,44,46,40,34,91,68,35,30.20,29.94,15,4,15,0.05
2013-4-30,70,48,36,47,35,30,91,66,28,30.48,30.20,17,2,17,0.13
2013-5-1,74,51,34,49,36,29,91,61,24,30.61,30.48,8,2,8,0.00
2013-5-2,79,57,41,54,42,35,86,61,35,30.58,30.40,12,3,12,0.00
2013-5-3,75,58,42,53,45,38,88,63,44,30.43,30.26,14,4,14,0.00
2013-5-4,78,63,50,54,47,43,82,59,36,30.27,30.04,10,4,10,0.00
2013-5-5,92,65,46,58,48,42,87,59,27,30.04,29.80,10,2,10,0.00
2013-5-6,99,70,48,63,49,43,87,54,22,29.89,29.78,9,2,9,0.00
2013-5-7,78,62,52,55,51,45,87,67,43,30.04,29.86,11,3,11,0.00
2013-5-8,76,59,52,55,50,47,88,74,48,30.18,30.04,10,3,10,0.00
2013-5-9,87,61,49,63,51,46,91,73,37,30.26,30.15,8,2,8,0.00
2013-5-10,98,66,47,62,52,44,90,65,29,30.24,30.14,7,2,7,0.00
2013-5-11,91,68,55,58,50,46,81,57,30,30.21,30.02,10,2,10,0.00
2013-5-12,77,64,58,61,56,49,91,76,53,30.13,30.04,17,4,17,0.13
2013-5-13,67,58,51,58,52,43,89,79,58,30.23,29.97,32,7,32,0.20
2013-5-14,77,59,49,48,44,40,83,61,32,30.26,30.15,12,3,12,0.00
2013-5-15,75,56,45,50,46,40,88,72,38,30.17,30.05,16,3,16,0.02
2013-5-16,90,60,53,64,52,49,90,79,33,30.06,29.97,4,1,4,0.01
2013-6-9,58,58,57,49,49,48,73,72,71,30.16,30.15,5,3,5,0.00
2013-6-10,62,58,55,49,48,47,73,70,64,29.98,29.94,6,2,6,0.00
2013-6-11,67,62,55,48,48,47,73,60,51,30.08,29.98,10,5,14,0.12
2013-6-12,62,59,55,50,49,48,78,70,65,30.17,30.16,12,4,12,0.00
2013-6-13,79,68,55,57,50,45,75,53,32,30.27,30.16,12,3,12,0.00
2013-6-14,81,63,55,55,50,47,79,64,36,30.27,30.09,13,3,14,0.00
2013-6-15,79,65,49,59,53,45,91,67,49,30.10,29.95,8,3,9,0.00
2013-6-16,85,66,53,60,54,49,89,67,41,30.13,30.02,12,3,12,0.00
2013-6-17,86,68,56,58,53,49,82,61,30,30.13,29.92,20,4,20,0.00
2013-6-18,82,67,55,55,51,43,87,60,28,30.02,29.91,17,3,17,0.00
2013-6-19,72,63,56,58,52,49,83,69,51,30.05,29.96,11,3,11,0.00
2013-6-20,63,58,53,57,52,49,91,82,70,30.15,29.99,16,3,16,0.40
2013-6-21,77,64,52,58,53,49,93,71,44,30.20,30.14,6,1,6,0.00
2013-6-22,94,69,51,60,53,48,91,63,29,30.16,29.89,8,2,8,0.00
2013-6-23,81,68,59,64,58,52,87,71,51,29.89,29.63,6,1,6,0.13
2013-6-24,76,64,57,60,56,53,93,77,51,29.74,29.61,19,4,19,0.07
2013-6-25,84,66,56,63,56,53,91,75,35,29.90,29.71,30,2,30,0.36
2013-6-26,81,66,55,64,58,53,93,76,51,30.12,29.88,15,3,15,0.05
2013-6-27,78,66,59,65,60,54,90,80,63,30.23,30.08,8,1,8,0.09
2013-6-28,97,76,61,71,63,58,91,68,33,30.23,30.07,11,2,11,0.00
2013-6-29,92,76,64,68,62,55,84,64,40,30.14,30.03,8,2,8,0.00
2013-6-30,106,81,60,73,64,54,83,59,33,30.06,29.89,8,2,8,0.00
2013-7-1,102,79,63,70,62,56,80,58,31,30.06,29.94,10,2,10,0.00
2013-7-2,94,73,60,67,57,51,83,60,34,30.14,30.06,11,3,11,0.00
2013-7-3,90,70,59,62,53,46,73,56,34,30.20,30.08,10,3,10,0.00
2013-7-4,79,67,57,57,54,48,81,63,44,30.17,30.07,11,3,11,0.00
2013-7-5,82,68,54,59,55,49,87,64,42,30.07,29.98,12,3,12,0.00
2013-7-6,92,69,54,63,56,50,89,66,31,30.02,29.90,8,2,8,0.00
2013-7-7,86,70,56,62,58,50,86,66,43,29.99,29.91,10,2,10,0.00
2013-7-8,90,68,58,63,57,54,87,69,38,30.13,29.98,12,4,12,0.00
2013-7-9,94,73,56,67,58,50,86,62,33,30.15,30.03,8,2,8,0.00
2013-7-10,79,66,56,60,54,49,82,68,50,30.11,29.99,12,4,12,0.00
2013-7-11,83,64,55,57,51,46,82,64,33,30.13,30.03,10,3,11,0.01
2013-7-12,85,61,50,61,50,45,83,68,37,30.14,30.05,10,1,10,0.00
2013-7-13,85,66,49,58,51,44,86,61,37,30.24,30.14,11,3,11,0.00
2013-7-14,96,72,50,64,52,45,87,55,26,30.17,30.02,13,2,13,0.00
2013-7-15,81,68,52,59,53,46,83,59,41,30.09,29.93,13,4,13,0.00
2013-7-16,95,73,58,64,55,46,74,54,34,29.95,29.83,8,3,8,0.00
2013-7-17,74,67,60,58,57,53,83,70,57,30.22,29.92,12,4,12,0.04
2013-7-18,91,70,58,63,57,52,86,67,38,30.26,30.16,6,2,6,0.00
2013-7-19,93,69,54,66,58,50,89,69,41,30.21,30.07,6,3,6,0.00
2013-7-20,86,67,54,64,57,50,89,72,44,30.12,29.99,7,3,7,0.00
2013-7-21,82,67,56,62,57,52,90,73,50,30.02,29.94,7,3,7,0.00
2013-7-22,90,70,58,64,58,55,91,70,39,30.10,29.97,8,3,8,0.00
2013-7-23,97,74,56,68,58,52,88,62,35,30.10,30.00,6,2,6,0.00
2013-7-24,98,73,56,64,55,49,82,57,31,30.09,30.03,7,2,7,0.00
2013-7-25,100,73,54,64,54,47,80,56,27,30.14,30.07,8,2,8,0.00
2013-7-26,104,72,54,63,53,47,81,55,26,30.19,30.11,10,2,10,0.00
2013-7-27,98,70,53,57,52,46,84,57,26,30.20,30.03,6,2,6,0.00
2013-7-28,74,64,56,58,54,49,87,71,56,30.07,29.99,13,7,13,0.00
2013-7-29,84,69,58,59,55,52,82,64,44,30.05,29.98,7,4,7,0.00
2013-7-30,86,74,58,61,57,53,87,59,40,30.17,30.04,8,2,8,0.00
2013-7-31,77,65,57,62,58,52,91,78,57,30.16,30.02,8,2,8,0.00
2013-8-1,70,63,57,60,56,54,89,79,64,30.10,30.07,11,5,11,0.00
2013-8-2,63,62,61,60,59,58,89,89,89,30.20,30.18,3,2,3,0.00
2013-8-17,67,65,64,59,58,57,79,77,75,30.13,30.11,4,2,4,0.00
2013-8-18,84,69,60,64,58,53,83,69,51,30.19,30.14,9,4,9,0.00
2013-8-19,89,70,60,63,56,51,79,64,42,30.17,30.13,12,3,12,0.00
2013-8-20,82,68,57,61,54,50,81,63,47,30.24,30.14,9,4,9,0.00
2013-8-21,90,68,53,64,54,47,84,62,41,30.16,30.00,8,3,8,0.00
2013-8-22,104,75,56,65,57,50,81,57,27,30.01,29.86,5,1,5,6.74
2013-8-23,77,68,63,60,58,54,83,71,54,29.95,29.89,12,6,12,0.00
2013-8-24,82,68,62,58,55,53,74,64,44,29.98,29.92,8,4,8,0.00
2013-8-25,100,70,53,66,58,50,89,67,32,30.01,29.89,7,1,7,0.01
2013-8-26,83,68,61,63,58,53,87,72,46,29.98,29.88,19,3,19,0.03
2013-8-27,95,75,61,68,60,56,87,63,36,29.98,29.81,8,2,8,0.02
2013-8-28,94,73,60,75,62,56,92,70,38,29.92,29.86,8,2,8,0.17
2013-8-29,83,68,64,70,63,60,92,85,59,30.04,29.88,12,1,12,0.52
2013-8-30,101,73,61,65,59,54,91,65,27,30.18,30.04,14,3,14,0.00
2013-8-31,91,70,54,70,58,51,92,68,41,30.12,29.87,9,2,9,0.00
2013-9-1,92,72,58,67,59,54,92,67,37,29.92,29.82,10,2,10,0.00
2013-9-2,94,75,59,66,59,54,88,61,32,29.97,29.89,10,2,10,0.00
2013-9-3,92,68,61,70,61,56,91,79,42,30.06,29.96,5,1,5,0.21
2013-9-4,82,66,58,68,60,56,92,82,55,30.08,30.02,9,2,9,0.01
2013-9-5,74,64,59,65,59,56,94,86,68,30.07,29.95,10,2,10,1.04
2013-9-6,80,66,60,67,61,58,95,85,58,30.14,29.96,13,2,14,1.11
2013-9-7,96,69,60,72,61,55,91,78,39,30.14,30.04,6,1,6,0.00
2013-9-8,102,72,57,71,60,54,93,71,32,30.14,30.05,7,1,7,0.00
2013-9-9,101,69,58,72,60,55,92,75,38,30.10,30.01,7,2,7,0.00
2013-9-10,85,69,56,69,60,54,93,75,52,30.03,29.91,9,3,9,0.00
2013-9-11,113,80,59,75,62,55,93,62,25,29.97,29.89,7,2,7,0.00
2013-9-12,100,72,59,69,60,55,91,70,32,30.03,29.93,10,2,10,0.00
2013-9-13,71,65,60,62,60,55,94,84,72,30.00,29.90,8,2,8,0.00
2013-9-14,86,66,60,67,60,56,91,81,51,29.91,29.76,5,2,5,0.00
2013-9-15,69,62,58,62,59,56,94,89,79,29.85,29.74,14,3,14,0.23
2013-9-16,75,63,58,63,58,53,90,83,62,29.96,29.83,14,3,14,0.01
2013-9-17,68,60,54,57,54,50,90,80,63,29.97,29.90,9,1,9,0.01
2013-9-18,82,63,53,59,52,47,92,72,37,30.10,29.97,9,2,9,0.00
2013-9-19,100,68,48,62,52,45,91,63,23,30.08,29.79,5,1,5,0.00
2013-9-20,87,64,52,61,53,49,90,73,37,29.79,29.62,19,3,19,0.05
2013-9-21,89,64,58,63,55,51,92,74,35,29.75,29.68,15,4,15,0.01
2013-9-22,67,60,56,58,54,50,90,81,65,29.77,29.60,19,5,19,0.19
2013-9-23,68,58,51,57,52,47,92,82,65,30.00,29.76,18,4,18,0.36
2013-9-24,72,57,51,54,50,46,92,77,44,29.99,29.86,14,4,14,0.07
2013-9-25,69,54,47,55,48,44,92,83,52,30.06,29.89,13,3,13,0.06
2013-9-26,83,57,46,65,48,43,94,77,37,30.16,30.06,8,1,8,0.01
2013-9-27,58,55,48,54,51,45,89,84,78,30.15,29.88,14,4,14,0.06
2013-9-28,60,56,53,58,53,51,93,90,85,29.88,29.54,9,3,9,0.42
2013-9-29,58,54,53,54,50,48,93,86,77,29.58,29.19,24,5,24,0.44
2013-9-30,66,55,51,53,49,45,91,81,61,29.94,29.44,23,5,23,0.09
2013-10-1,66,54,49,54,48,44,91,79,51,30.14,29.93,16,3,16,0.14
2013-10-2,61,52,49,54,48,45,91,85,65,30.20,30.08,13,2,13,0.27
2013-10-3,71,54,45,58,47,42,91,79,50,30.49,30.20,6,2,6,0.00
2013-10-4,81,54,43,62,46,40,94,76,39,30.51,30.38,7,1,7,0.01
2013-10-5,93,59,44,62,48,41,94,72,32,30.39,30.16,5,1,5,0.00
2013-10-6,87,61,44,60,48,42,93,68,26,30.16,29.90,17,2,17,0.03
2013-10-7,69,57,53,54,50,46,90,79,52,30.04,29.91,17,5,18,0.05
2013-10-8,63,53,43,56,47,40,90,80,60,30.11,29.99,13,2,13,0.27
2013-10-9,78,50,39,55,43,37,94,79,39,30.17,29.98,7,1,7,0.00
2013-10-10,73,54,46,54,47,42,91,79,47,30.10,29.96,8,1,8,0.00
2013-10-11,59,52,48,52,48,45,91,86,73,30.17,30.09,5,1,5,0.00
2013-10-12,64,52,45,54,48,42,93,85,63,30.25,30.09,10,2,10,0.06
2013-10-13,78,52,42,58,46,40,94,81,41,30.40,30.24,6,2,6,0.00
2013-10-14,76,51,39,58,43,37,94,78,40,30.46,30.39,6,1,6,0.01
2013-10-15,70,51,42,55,45,39,94,81,51,30.42,30.20,6,1,6,0.00
2013-10-16,68,52,45,56,47,43,92,85,57,30.23,30.17,8,1,8,0.00
2013-10-17,69,53,45,54,47,42,91,81,53,30.31,30.23,7,2,7,0.00
2013-10-18,80,52,42,59,46,40,94,81,46,30.28,30.17,7,2,7,0.00
2013-10-19,54,48,44,49,45,41,94,89,82,30.23,30.17,6,2,6,0.00
2013-10-20,54,49,47,48,46,44,92,89,82,30.24,30.18,6,1,6,0.00
2013-10-21,55,50,46,50,47,44,93,89,82,30.20,30.13,6,2,6,0.00
2013-10-22,80,52,45,64,48,42,94,87,52,30.15,30.06,8,2,8,0.00
2013-10-23,67,51,45,60,46,43,94,86,62,30.08,30.00,6,1,6,0.00
2013-10-24,58,49,45,52,46,43,95,90,79,30.15,30.05,9,1,9,0.01
2013-10-25,56,50,44,51,47,41,93,89,79,30.35,30.15,6,0,8,0.01
2013-10-26,57,51,45,50,46,42,94,85,74,30.36,30.22,9,1,9,0.00
2013-10-27,64,51,44,53,46,40,93,83,63,30.23,29.93,15,2,15,0.16
2013-10-28,53,46,43,44,41,39,93,84,66,29.97,29.94,13,2,13,0.00
2013-11-1,65,58,52,55,50,47,92,76,57,30.27,29.86,5,1,5,0.00
2013-11-2,54,50,43,51,46,40,93,87,67,29.91,29.51,33,3,33,0.49
2013-11-3,61,45,40,45,41,37,92,84,49,30.08,29.91,9,2,9,0.00
2013-11-4,61,44,35,51,38,33,93,80,49,30.22,30.08,6,1,7,0.04
2013-11-5,56,47,42,50,44,39,92,89,79,30.29,30.04,9,1,9,0.16
2013-11-6,62,48,42,56,44,40,94,89,68,30.35,30.21,3,1,4,0.00
2013-11-7,52,49,48,49,47,46,94,91,81,30.00,29.74,16,3,16,0.68
2013-11-8,65,50,42,51,44,39,91,81,57,30.19,29.99,9,2,9,0.01
2013-11-9,56,46,38,49,42,36,94,87,73,30.18,30.10,7,1,7,0.08
2013-11-10,52,47,44,47,44,42,94,89,83,30.19,30.12,7,2,8,0.04
2013-11-11,72,50,42,58,45,40,94,85,49,30.19,30.02,8,1,8,0.00
2013-11-12,69,53,44,57,49,41,94,86,63,30.38,30.05,9,1,9,0.13
2013-11-13,62,52,49,53,48,44,91,86,67,30.46,30.33,12,1,12,0.00
2013-11-14,52,48,43,48,45,41,94,91,86,30.33,30.08,6,1,6,0.10
2013-11-15,48,46,44,46,43,41,94,90,83,30.09,29.35,20,3,20,0.34
2013-11-16,57,45,40,44,40,38,94,83,63,29.80,29.36,14,3,14,0.00
2013-11-17,56,48,44,48,44,38,88,83,72,29.92,29.80,20,4,20,0.00
2013-11-18,51,50,48,49,47,44,94,92,86,29.92,29.58,8,2,8,0.35
2013-11-19,54,45,38,51,40,27,94,82,60,30.10,29.57,20,3,22,0.00
2013-11-20,54,37,30,37,28,24,89,71,38,30.54,30.10,13,3,13,0.03
2013-11-21,68,36,27,42,27,23,89,73,29,30.69,30.54,8,1,8,0.00
2013-11-22,58,37,28,43,29,24,88,75,44,30.68,30.48,8,2,8,0.00
2013-11-23,66,41,30,46,33,26,86,75,41,30.48,30.22,10,1,10,0.00
2013-11-24,74,44,33,57,36,30,91,78,35,30.24,30.19,6,1,7,0.00
2013-11-25,38,38,37,35,34,33,88,87,86,30.30,30.30,1,0,1,0.00
2013-11-26,65,44,35,52,38,32,93,82,49,30.30,30.12,6,1,6,0.00
2013-11-27,71,47,37,52,40,34,89,77,45,30.13,29.99,7,1,7,0.00
2013-11-28,58,41,35,46,37,32,93,87,62,30.21,30.05,7,1,7,0.00
2013-11-29,52,44,38,47,42,35,94,90,81,30.34,30.21,8,1,8,0.00
2013-11-30,51,49,46,47,45,43,92,85,77,30.35,30.11,8,2,8,0.09
2013-12-1,54,51,42,51,47,38,94,86,80,30.11,29.77,25,7,25,0.01
2013-12-2,55,41,36,39,35,32,91,81,48,30.09,29.84,9,2,10,0.13
2013-12-3,50,36,27,34,27,22,90,72,44,30.35,30.09,13,4,13,0.00
2013-12-4,62,32,24,45,25,20,92,77,32,30.38,30.32,6,1,6,0.00
2013-12-5,37,28,23,28,22,16,88,77,59,30.35,30.22,7,1,7,0.00
2013-12-6,49,28,21,26,14,8,75,58,25,30.27,30.17,7,1,8,0.00
2013-12-7,21,20,18,10,9,7,63,61,58,30.35,30.26,11,2,11,0.00
2013-12-10,0,0,0,0,0,0,16,16,16,30.50,30.50,17,17,17,0.00
2014-1-1,64,44,41,56,40,39,93,88,71,30.41,30.27,3,0,3,0.00
2014-1-2,50,45,42,45,42,39,94,90,78,30.27,29.92,14,2,14,0.28